| time (UTC) | temp F | wind direction | speed MPH | gust MPH | rain 1hr in | rain 24hr in | rain mn in | humidity % | barometer mb |
| 20260509222451 | 62 | 242 | 20.0 | 26.0 | 0.00 | 0.13 | 0.01 | 94 | 1006.5 |
| 20260509221948 | 62 | 231 | 16.0 | 23.0 | 0.00 | 0.13 | 0.01 | 95 | 1006.2 |
| 20260509221448 | 62 | 241 | 17.0 | 26.0 | 0.00 | 0.13 | 0.01 | 95 | 1006.4 |
| 20260509220942 | 61 | 242 | 17.0 | 26.0 | 0.00 | 0.13 | 0.01 | 95 | 1006.2 |
| 20260509220439 | 62 | 238 | 17.0 | 22.0 | 0.00 | 0.13 | 0.01 | 95 | 1006.2 |
| 20260509215941 | 61 | 215 | 16.0 | 22.0 | 0.00 | 0.13 | 0.01 | 96 | 1006.2 |
| 20260509215708 | 61 | 227 | 13.0 | 20.0 | 0.00 | 0.13 | 0.01 | 96 | 1006.2 |
| 20260509214933 | 61 | 237 | 16.0 | 20.0 | 0.00 | 0.13 | 0.01 | 96 | 1006.3 |
| 20260509214432 | 61 | 242 | 14.0 | 20.0 | 0.01 | 0.13 | 0.01 | 95 | 1006.3 |
| 20260509213927 | 60 | 229 | 13.0 | 20.0 | 0.01 | 0.13 | 0.01 | 95 | 1006.3 |
| 20260509213429 | 60 | 220 | 15.0 | 20.0 | 0.01 | 0.13 | 0.01 | 96 | 1006.3 |
| 20260509212927 | 59 | 237 | 12.0 | 17.0 | 0.01 | 0.13 | 0.01 | 96 | 1006.2 |
| 20260509212427 | 59 | 228 | 9.0 | 15.0 | 0.01 | 0.13 | 0.01 | 97 | 1006.3 |
| 20260509211923 | 59 | 242 | 10.0 | 17.0 | 0.01 | 0.13 | 0.01 | 97 | 1006.3 |
| 20260509211419 | 59 | 228 | 11.0 | 19.0 | 0.01 | 0.13 | 0.01 | 97 | 1006.3 |
| 20260509210919 | 59 | 247 | 14.0 | 19.0 | 0.01 | 0.13 | 0.01 | 96 | 1006.3 |
| 20260509210419 | 59 | 229 | 9.0 | 14.0 | 0.01 | 0.13 | 0.01 | 96 | 1006.2 |
| 20260509205918 | 59 | 231 | 12.0 | 16.0 | 0.01 | 0.13 | 0.01 | 96 | 1006.3 |
| 20260509205413 | 59 | 241 | 12.0 | 16.0 | 0.01 | 0.13 | 0.01 | 97 | 1006.3 |
| 20260509205145 | 58 | 234 | 10.0 | 16.0 | 0.01 | 0.13 | 0.01 | 97 | 1006.1 |
| 20260509204409 | 58 | 221 | 8.0 | 16.0 | 0.00 | 0.13 | 0.01 | 97 | 1006.0 |
| 20260509203905 | 58 | 236 | 10.0 | 13.0 | 0.00 | 0.13 | 0.00 | 97 | 1006.1 |
| 20260509203642 | 57 | 240 | 10.0 | 14.0 | 0.00 | 0.13 | 0.00 | 98 | 1006.0 |
| 20260509202905 | 57 | 229 | 9.0 | 14.0 | 0.00 | 0.13 | 0.00 | 98 | 1006.0 |
| 20260509202405 | 57 | 225 | 9.0 | 14.0 | 0.00 | 0.13 | 0.00 | 98 | 1005.9 |
| 20260509201908 | 57 | 246 | 9.0 | 17.0 | 0.00 | 0.13 | 0.00 | 98 | 1005.9 |
| 20260509201640 | 57 | 226 | 11.0 | 17.0 | 0.00 | 0.13 | 0.00 | 98 | 1005.8 |
| 20260509200859 | 57 | 194 | 10.0 | 14.0 | 0.00 | 0.13 | 0.00 | 98 | 1005.8 |
| 20260509200355 | 56 | 236 | 7.0 | 9.0 | 0.00 | 0.13 | 0.00 | 99 | 1005.7 |
| 20260509200131 | 56 | 243 | 5.0 | 7.0 | 0.00 | 0.13 | 0.00 | 98 | 1005.6 |
| 20260509195353 | 56 | 246 | 4.0 | 8.0 | 0.00 | 0.13 | 0.00 | 99 | 1005.6 |
| 20260509194853 | 56 | 246 | 4.0 | 8.0 | 0.00 | 0.13 | 0.00 | 99 | 1005.6 |
| 20260509194352 | 55 | 238 | 3.0 | 6.0 | 0.00 | 0.13 | 0.00 | 99 | 1005.6 |
| 20260509193852 | 55 | 265 | 2.0 | 4.0 | 0.00 | 0.13 | 0.00 | 99 | 1005.5 |
| 20260509193345 | 55 | 244 | 2.0 | 3.0 | 0.00 | 0.13 | 0.00 | 98 | 1005.5 |
| 20260509192846 | 55 | 265 | 1.0 | 5.0 | 0.00 | 0.13 | 0.00 | 98 | 1005.5 |
| 20260509192343 | 55 | 251 | 3.0 | 6.0 | 0.00 | 0.13 | 0.00 | 98 | 1005.5 |
| 20260509191841 | 55 | 237 | 2.0 | 6.0 | 0.00 | 0.13 | 0.00 | 98 | 1005.5 |
| 20260509191341 | 55 | 228 | 3.0 | 11.0 | 0.00 | 0.13 | 0.00 | 98 | 1005.5 |
| 20260509190841 | 55 | 208 | 4.0 | 11.0 | 0.00 | 0.13 | 0.00 | 99 | 1005.5 |
| 20260509190340 | 55 | 228 | 5.0 | 8.0 | 0.00 | 0.13 | 0.00 | 99 | 1005.4 |
| 20260509185828 | 54 | 232 | 6.0 | 8.0 | 0.00 | 0.13 | 0.00 | 98 | 1005.3 |
| 20260509185322 | 54 | 256 | 4.0 | 5.0 | 0.00 | 0.13 | 0.00 | 97 | 1005.3 |
| 20260509184817 | 54 | 253 | 3.0 | 8.0 | 0.00 | 0.13 | 0.00 | 97 | 1005.3 |
| 20260509184317 | 54 | 253 | 5.0 | 9.0 | 0.00 | 0.13 | 0.00 | 97 | 1005.3 |
| 20260509183817 | 54 | 248 | 6.0 | 9.0 | 0.00 | 0.13 | 0.00 | 97 | 1005.3 |
| 20260509183314 | 55 | 232 | 6.0 | 10.0 | 0.00 | 0.13 | 0.00 | 97 | 1005.3 |
| 20260509182813 | 55 | 211 | 7.0 | 16.0 | 0.00 | 0.13 | 0.00 | 97 | 1005.4 |
| 20260509182314 | 55 | 227 | 11.0 | 20.0 | 0.00 | 0.13 | 0.00 | 97 | 1005.4 |
| 20260509181810 | 55 | 233 | 16.0 | 20.0 | 0.00 | 0.13 | 0.00 | 97 | 1005.3 |
| 20260509181304 | 53 | 227 | 5.0 | 7.0 | 0.00 | 0.13 | 0.00 | 97 | 1005.2 |
| 20260509180803 | 53 | 229 | 2.0 | 3.0 | 0.00 | 0.13 | 0.00 | 97 | 1005.0 |
| 20260509180532 | 53 | 241 | 2.0 | 5.0 | 0.00 | 0.13 | 0.00 | 97 | 1005.0 |
| 20260509175755 | 53 | 241 | 4.0 | 7.0 | 0.00 | 0.13 | 0.00 | 97 | 1005.0 |
| 20260509175519 | 53 | 231 | 5.0 | 7.0 | 0.00 | 0.13 | 0.00 | 97 | 1005.0 |
| 20260509174745 | 53 | 237 | 4.0 | 7.0 | 0.00 | 0.13 | 0.00 | 97 | 1004.9 |
| 20260509174517 | 53 | 240 | 2.0 | 8.0 | 0.00 | 0.13 | 0.00 | 97 | 1005.0 |
| 20260509173735 | 54 | 240 | 4.0 | 8.0 | 0.00 | 0.13 | 0.00 | 97 | 1004.9 |
| 20260509173226 | 54 | 242 | 6.0 | 8.0 | 0.00 | 0.13 | 0.00 | 97 | 1004.9 |
| 20260509172726 | 53 | 250 | 4.0 | 8.0 | 0.00 | 0.13 | 0.00 | 97 | 1004.9 |
| 20260509172220 | 53 | 246 | 4.0 | 8.0 | 0.00 | 0.13 | 0.00 | 97 | 1004.8 |
| 20260509171950 | 53 | 239 | 4.0 | 6.0 | 0.00 | 0.13 | 0.00 | 97 | 1004.8 |
| 20260509171217 | 53 | 228 | 4.0 | 6.0 | 0.00 | 0.13 | 0.00 | 97 | 1004.7 |
| 20260509170713 | 53 | 224 | 4.0 | 7.0 | 0.00 | 0.13 | 0.00 | 97 | 1004.7 |
| 20260509170207 | 53 | 240 | 5.0 | 8.0 | 0.00 | 0.13 | 0.00 | 97 | 1004.8 |
| 20260509165702 | 53 | 233 | 6.0 | 9.0 | 0.00 | 0.13 | 0.00 | 97 | 1004.8 |
| 20260509165429 | 53 | 233 | 6.0 | 10.0 | 0.00 | 0.13 | 0.00 | 97 | 1004.7 |
| 20260509164935 | 53 | 228 | 6.0 | 10.0 | 0.00 | 0.13 | 0.00 | 97 | 1004.7 |
| 20260509164432 | 53 | 229 | 6.0 | 8.0 | 0.00 | 0.13 | 0.00 | 97 | 1004.6 |
| 20260509163931 | 54 | 221 | 6.0 | 10.0 | 0.00 | 0.13 | 0.00 | 97 | 1004.4 |
| 20260509163154 | 54 | 230 | 6.0 | 10.0 | 0.00 | 0.13 | 0.00 | 97 | 1004.5 |
| 20260509162649 | 54 | 231 | 6.0 | 10.0 | 0.00 | 0.13 | 0.00 | 97 | 1004.5 |
| 20260509162144 | 53 | 224 | 6.0 | 10.0 | 0.00 | 0.13 | 0.00 | 98 | 1004.5 |
| 20260509161646 | 53 | 232 | 5.0 | 9.0 | 0.00 | 0.13 | 0.00 | 99 | 1004.6 |
| 20260509161146 | 52 | 248 | 3.0 | 7.0 | 0.00 | 0.13 | 0.00 | 98 | 1004.6 |
| 20260509160641 | 52 | 248 | 3.0 | 5.0 | 0.00 | 0.13 | 0.00 | 98 | 1004.6 |
| 20260509160141 | 52 | 233 | 3.0 | 5.0 | 0.00 | 0.13 | 0.00 | 98 | 1004.5 |
| 20260509155627 | 52 | 233 | 4.0 | 5.0 | 0.00 | 0.13 | 0.00 | 98 | 1004.6 |
| 20260509155123 | 53 | 233 | 4.0 | 6.0 | 0.00 | 0.13 | 0.00 | 97 | 1004.6 |
| 20260509154625 | 53 | 233 | 4.0 | 9.0 | 0.00 | 0.13 | 0.00 | 97 | 1004.6 |
| 20260509154119 | 53 | 226 | 5.0 | 9.0 | 0.00 | 0.13 | 0.00 | 98 | 1004.7 |
| 20260509153616 | 53 | 242 | 6.0 | 9.0 | 0.00 | 0.13 | 0.00 | 98 | 1004.7 |
| 20260509153116 | 53 | 233 | 6.0 | 9.0 | 0.00 | 0.13 | 0.00 | 99 | 1004.8 |
| 20260509152611 | 53 | 248 | 5.0 | 8.0 | 0.00 | 0.13 | 0.00 | 99 | 1004.8 |
| 20260509152110 | 53 | 248 | 4.0 | 6.0 | 0.00 | 0.13 | 0.00 | 98 | 1004.8 |
| 20260509151612 | 53 | 220 | 4.0 | 5.0 | 0.00 | 0.13 | 0.00 | 98 | 1004.8 |
| 20260509151116 | 54 | 227 | 4.0 | 8.0 | 0.00 | 0.13 | 0.00 | 98 | 1004.9 |
| 20260509151111 | 53 | 232 | 4.0 | 8.0 | 0.00 | 0.13 | 0.00 | 98 | 1004.8 |
| 20260509150105 | 54 | 233 | 5.0 | 8.0 | 0.00 | 0.13 | 0.00 | 99 | 1004.9 |
| 20260509145601 | 54 | 229 | 5.0 | 8.0 | 0.00 | 0.13 | 0.00 | 99 | 1005.0 |
| 20260509145101 | 54 | 236 | 5.0 | 9.0 | 0.00 | 0.13 | 0.00 | 99 | 1005.0 |
| 20260509144601 | 54 | 246 | 6.0 | 9.0 | 0.00 | 0.13 | 0.00 | 100 | 1004.9 |
| 20260509144333 | 54 | 241 | 6.0 | 9.0 | 0.00 | 0.13 | 0.00 | 100 | 1004.8 |
| 20260509143835 | 54 | 246 | 6.0 | 8.0 | 0.00 | 0.13 | 0.00 | 100 | 1004.9 |
| 20260509143058 | 54 | 230 | 6.0 | 8.0 | 0.00 | 0.13 | 0.00 | 100 | 1005.0 |
| 20260509142831 | 54 | 236 | 5.0 | 8.0 | 0.00 | 0.13 | 0.00 | 100 | 1005.0 |
| 20260509142050 | 53 | 240 | 5.0 | 6.0 | 0.00 | 0.13 | 0.00 | 100 | 1005.1 |
| 20260509141815 | 54 | 226 | 5.0 | 6.0 | 0.00 | 0.13 | 0.00 | 100 | 1005.1 |
| 20260509141301 | 54 | 225 | 4.0 | 6.0 | 0.00 | 0.13 | 0.00 | 100 | 1005.1 |
| 20260509140530 | 54 | 221 | 4.0 | 6.0 | 0.00 | 0.13 | 0.00 | 100 | 1005.1 |
| 20260509140028 | 54 | 205 | 1.0 | 6.0 | 0.00 | 0.13 | 0.00 | 100 | 1005.1 |
| 20260509135522 | 55 | 182 | 4.0 | 8.0 | 0.00 | 0.13 | 0.00 | 100 | 1005.1 |
| 20260509135023 | 55 | 227 | 5.0 | 8.0 | 0.00 | 0.13 | 0.00 | 100 | 1005.1 |
| 20260509134753 | 55 | 227 | 6.0 | 8.0 | 0.00 | 0.13 | 0.00 | 100 | 1005.0 |
| 20260509134013 | 55 | 238 | 5.0 | 8.0 | 0.00 | 0.13 | 0.00 | 100 | 1004.9 |
| 20260509133518 | 55 | 248 | 5.0 | 8.0 | 0.00 | 0.13 | 0.00 | 100 | 1004.9 |
| 20260509133014 | 55 | 252 | 5.0 | 7.0 | 0.00 | 0.13 | 0.00 | 100 | 1004.8 |
| 20260509132510 | 55 | 237 | 4.0 | 6.0 | 0.00 | 0.13 | 0.00 | 100 | 1004.9 |
| 20260509132010 | 54 | 232 | 5.0 | 6.0 | 0.00 | 0.13 | 0.00 | 100 | 1004.9 |
| 20260509131506 | 55 | 223 | 3.0 | 5.0 | 0.00 | 0.13 | 0.00 | 100 | 1004.9 |
| 20260509130957 | 55 | 223 | 2.0 | 4.0 | 0.00 | 0.13 | 0.00 | 100 | 1004.9 |
| 20260509130456 | 55 | 203 | 1.0 | 4.0 | 0.00 | 0.13 | 0.00 | 100 | 1004.9 |
| 20260509125953 | 55 | 203 | 2.0 | 5.0 | 0.00 | 0.13 | 0.00 | 100 | 1004.8 |
| 20260509125448 | 55 | 204 | 4.0 | 6.0 | 0.00 | 0.13 | 0.00 | 100 | 1004.8 |
| 20260509124947 | 56 | 225 | 5.0 | 8.0 | 0.00 | 0.13 | 0.00 | 100 | 1004.8 |
| 20260509124445 | 56 | 228 | 6.0 | 10.0 | 0.01 | 0.13 | 0.00 | 100 | 1004.8 |
| 20260509123941 | 56 | 215 | 6.0 | 11.0 | 0.01 | 0.13 | 0.00 | 100 | 1004.8 |
| 20260509123441 | 56 | 230 | 8.0 | 12.0 | 0.01 | 0.13 | 0.00 | 100 | 1004.9 |
| 20260509122937 | 56 | 219 | 8.0 | 12.0 | 0.01 | 0.13 | 0.00 | 100 | 1004.9 |
| 20260509122433 | 56 | 227 | 7.0 | 12.0 | 0.01 | 0.14 | 0.00 | 100 | 1004.9 |
| 20260509121933 | 56 | 208 | 7.0 | 12.0 | 0.01 | 0.14 | 0.00 | 100 | 1005.0 |
| 20260509121433 | 56 | 220 | 8.0 | 10.0 | 0.01 | 0.15 | 0.00 | 100 | 1005.2 |
| 20260509120925 | 56 | 242 | 4.0 | 6.0 | 0.01 | 0.15 | 0.00 | 100 | 1005.3 |
| 20260509120425 | 56 | 239 | 5.0 | 6.0 | 0.01 | 0.16 | 0.00 | 100 | 1005.2 |
| 20260509115926 | 56 | 227 | 4.0 | 7.0 | 0.01 | 0.16 | 0.16 | 100 | 1005.2 |
| 20260509115423 | 56 | 224 | 5.0 | 8.0 | 0.01 | 0.16 | 0.16 | 100 | 1005.1 |
| 20260509114916 | 56 | 229 | 5.0 | 9.0 | 0.01 | 0.16 | 0.16 | 100 | 1005.2 |
| 20260509114416 | 56 | 232 | 5.0 | 11.0 | 0.00 | 0.16 | 0.15 | 100 | 1005.3 |
| 20260509113915 | 56 | 250 | 8.0 | 13.0 | 0.00 | 0.16 | 0.15 | 100 | 1005.4 |
| 20260509113413 | 56 | 247 | 9.0 | 13.0 | 0.00 | 0.16 | 0.15 | 100 | 1005.5 |
| 20260509112908 | 56 | 223 | 5.0 | 10.0 | 0.00 | 0.16 | 0.15 | 100 | 1005.4 |
| 20260509112408 | 56 | 251 | 6.0 | 12.0 | 0.00 | 0.16 | 0.15 | 100 | 1005.4 |
| 20260509111908 | 56 | 254 | 8.0 | 12.0 | 0.00 | 0.16 | 0.15 | 100 | 1005.4 |
| 20260509111407 | 56 | 271 | 7.0 | 12.0 | 0.00 | 0.17 | 0.15 | 100 | 1005.4 |
| 20260509110903 | 56 | 290 | 7.0 | 9.0 | 0.00 | 0.18 | 0.15 | 100 | 1005.4 |
| 20260509110357 | 56 | 288 | 6.0 | 9.0 | 0.00 | 0.19 | 0.15 | 100 | 1005.3 |
| 20260509105853 | 56 | 284 | 6.0 | 8.0 | 0.00 | 0.19 | 0.15 | 100 | 1005.2 |
| 20260509105630 | 56 | 284 | 6.0 | 8.0 | 0.00 | 0.19 | 0.15 | 100 | 1005.2 |
| 20260509104839 | 56 | 284 | 5.0 | 8.0 | 0.00 | 0.19 | 0.15 | 100 | 1005.1 |
| 20260509104337 | 56 | 284 | 4.0 | 7.0 | 0.00 | 0.19 | 0.15 | 100 | 1005.2 |
| 20260509104111 | 55 | 284 | 3.0 | 6.0 | 0.00 | 0.19 | 0.15 | 100 | 1005.2 |
| 20260509103334 | 55 | 284 | 3.0 | 6.0 | 0.00 | 0.19 | 0.15 | 100 | 1005.2 |
| 20260509102833 | 55 | 284 | 3.0 | 6.0 | 0.00 | 0.19 | 0.15 | 100 | 1005.1 |
| 20260509102327 | 55 | 284 | 3.0 | 6.0 | 0.00 | 0.19 | 0.15 | 99 | 1004.9 |
| 20260509101819 | 55 | 284 | 3.0 | 6.0 | 0.00 | 0.19 | 0.15 | 99 | 1004.7 |
| 20260509101316 | 55 | 284 | 4.0 | 6.0 | 0.00 | 0.19 | 0.15 | 99 | 1004.7 |
| 20260509100813 | 56 | 284 | 2.0 | 6.0 | 0.00 | 0.19 | 0.15 | 99 | 1004.9 |
| 20260509100543 | 56 | 284 | 3.0 | 6.0 | 0.00 | 0.19 | 0.15 | 99 | 1005.1 |
| 20260509095810 | 56 | 284 | 3.0 | 6.0 | 0.00 | 0.19 | 0.15 | 99 | 1005.1 |
| 20260509095309 | 56 | 284 | 1.0 | 4.0 | 0.00 | 0.19 | 0.15 | 99 | 1005.0 |
| 20260509094804 | 56 | 284 | 2.0 | 3.0 | 0.00 | 0.19 | 0.15 | 99 | 1005.1 |
| 20260509094302 | 56 | 284 | 2.0 | 3.0 | 0.00 | 0.19 | 0.15 | 99 | 1005.0 |
| 20260509093744 | 56 | 284 | 0.0 | 4.0 | 0.00 | 0.19 | 0.15 | 99 | 1004.9 |
| 20260509093242 | 56 | 284 | 2.0 | 6.0 | 0.00 | 0.19 | 0.15 | 99 | 1004.9 |
| 20260509092739 | 56 | 284 | 2.0 | 6.0 | 0.00 | 0.19 | 0.15 | 99 | 1004.9 |
| 20260509092509 | 56 | 284 | 3.0 | 7.0 | 0.00 | 0.19 | 0.15 | 99 | 1005.0 |
| 20260509091737 | 56 | 284 | 3.0 | 7.0 | 0.00 | 0.19 | 0.15 | 99 | 1005.0 |
| 20260509091234 | 56 | 284 | 3.0 | 7.0 | 0.00 | 0.19 | 0.15 | 99 | 1005.0 |
| 20260509090730 | 56 | 284 | 4.0 | 7.0 | 0.00 | 0.19 | 0.15 | 99 | 1005.1 |
| 20260509090231 | 56 | 284 | 4.0 | 10.0 | 0.01 | 0.19 | 0.15 | 99 | 1005.1 |
| 20260509085730 | 56 | 284 | 3.0 | 10.0 | 0.02 | 0.19 | 0.15 | 99 | 1005.3 |
| 20260509085229 | 56 | 288 | 4.0 | 8.0 | 0.02 | 0.19 | 0.15 | 99 | 1005.4 |
| 20260509084731 | 56 | 288 | 3.0 | 8.0 | 0.02 | 0.19 | 0.15 | 99 | 1005.4 |
| 20260509084227 | 56 | 308 | 4.0 | 8.0 | 0.03 | 0.19 | 0.15 | 99 | 1005.5 |
| 20260509083724 | 57 | 313 | 3.0 | 7.0 | 0.03 | 0.19 | 0.15 | 99 | 1005.4 |
| 20260509083222 | 57 | 290 | 4.0 | 8.0 | 0.03 | 0.19 | 0.15 | 99 | 1005.5 |
| 20260509082719 | 57 | 299 | 5.0 | 8.0 | 0.03 | 0.19 | 0.15 | 99 | 1005.5 |
| 20260509082215 | 57 | 288 | 3.0 | 5.0 | 0.04 | 0.19 | 0.15 | 99 | 1005.5 |
| 20260509081716 | 57 | 288 | 4.0 | 8.0 | 0.04 | 0.19 | 0.15 | 99 | 1005.4 |
| 20260509081217 | 57 | 288 | 5.0 | 9.0 | 0.05 | 0.19 | 0.15 | 98 | 1005.5 |
| 20260509080711 | 57 | 288 | 6.0 | 13.0 | 0.04 | 0.18 | 0.15 | 98 | 1005.7 |
| 20260509080206 | 57 | 284 | 9.0 | 13.0 | 0.04 | 0.18 | 0.14 | 98 | 1005.6 |
| 20260509075950 | 58 | 316 | 8.0 | 13.0 | 0.04 | 0.17 | 0.13 | 99 | 1005.6 |
| 20260509075204 | 58 | 286 | 8.0 | 14.0 | 0.03 | 0.17 | 0.13 | 98 | 1005.6 |
| 20260509074654 | 58 | 337 | 8.0 | 14.0 | 0.04 | 0.17 | 0.13 | 99 | 1005.7 |
| 20260509074155 | 58 | 281 | 6.0 | 10.0 | 0.04 | 0.16 | 0.12 | 98 | 1005.5 |
| 20260509073655 | 58 | 281 | 7.0 | 9.0 | 0.05 | 0.16 | 0.12 | 98 | 1005.5 |
| 20260509073149 | 58 | 281 | 5.0 | 9.0 | 0.06 | 0.16 | 0.12 | 98 | 1005.4 |
| 20260509072646 | 58 | 281 | 5.0 | 12.0 | 0.06 | 0.16 | 0.12 | 98 | 1005.4 |
| 20260509072417 | 58 | 280 | 6.0 | 13.0 | 0.05 | 0.15 | 0.12 | 98 | 1005.4 |
| 20260509071636 | 58 | 285 | 8.0 | 13.0 | 0.05 | 0.15 | 0.11 | 98 | 1005.3 |
| 20260509071131 | 58 | 289 | 6.0 | 12.0 | 0.04 | 0.14 | 0.10 | 98 | 1005.3 |
| 20260509070634 | 59 | 284 | 8.0 | 11.0 | 0.06 | 0.14 | 0.10 | 98 | 1005.0 |
| 20260509070124 | 59 | 277 | 8.0 | 11.0 | 0.06 | 0.14 | 0.10 | 98 | 1004.9 |
| 20260509065623 | 59 | 287 | 4.0 | 8.0 | 0.06 | 0.13 | 0.09 | 98 | 1004.9 |
| 20260509065118 | 59 | 287 | 4.0 | 7.0 | 0.06 | 0.13 | 0.09 | 98 | 1004.7 |
| 20260509064619 | 59 | 288 | 3.0 | 5.0 | 0.05 | 0.13 | 0.09 | 97 | 1004.7 |
| 20260509064113 | 59 | 288 | 2.0 | 7.0 | 0.04 | 0.12 | 0.08 | 97 | 1004.7 |
| 20260509063847 | 59 | 289 | 3.0 | 7.0 | 0.03 | 0.11 | 0.07 | 97 | 1004.8 |
| 20260509063104 | 59 | 287 | 3.0 | 7.0 | 0.02 | 0.10 | 0.06 | 97 | 1004.7 |
| 20260509062604 | 60 | 287 | 3.0 | 7.0 | 0.02 | 0.10 | 0.06 | 96 | 1004.8 |
| 20260509062335 | 60 | 287 | 3.0 | 8.0 | 0.02 | 0.10 | 0.06 | 96 | 1004.8 |
| 20260509061829 | 60 | 287 | 4.0 | 8.0 | 0.02 | 0.10 | 0.06 | 96 | 1004.7 |
| 20260509061054 | 60 | 292 | 4.0 | 9.0 | 0.02 | 0.10 | 0.06 | 96 | 1004.7 |
| 20260509060554 | 60 | 302 | 7.0 | 12.0 | 0.01 | 0.09 | 0.05 | 96 | 1004.7 |
| 20260509060050 | 60 | 284 | 7.0 | 12.0 | 0.00 | 0.08 | 0.04 | 96 | 1004.7 |
| 20260509055552 | 61 | 284 | 6.0 | 11.0 | 0.00 | 0.08 | 0.04 | 96 | 1004.6 |
| 20260509055050 | 61 | 288 | 5.0 | 11.0 | 0.00 | 0.08 | 0.04 | 96 | 1004.6 |
| 20260509054541 | 61 | 288 | 6.0 | 11.0 | 0.00 | 0.09 | 0.04 | 96 | 1004.7 |
| 20260509054046 | 61 | 294 | 8.0 | 13.0 | 0.00 | 0.09 | 0.04 | 96 | 1004.7 |
| 20260509053542 | 62 | 285 | 7.0 | 13.0 | 0.00 | 0.09 | 0.04 | 96 | 1004.7 |
| 20260509053037 | 62 | 286 | 8.0 | 12.0 | 0.00 | 0.09 | 0.04 | 96 | 1004.6 |
| 20260509052532 | 62 | 277 | 7.0 | 11.0 | 0.00 | 0.09 | 0.04 | 96 | 1004.6 |
| 20260509052030 | 62 | 283 | 8.0 | 11.0 | 0.00 | 0.09 | 0.04 | 96 | 1004.4 |
| 20260509051528 | 62 | 302 | 8.0 | 11.0 | 0.00 | 0.09 | 0.04 | 96 | 1004.4 |
| 20260509051023 | 62 | 286 | 7.0 | 11.0 | 0.00 | 0.09 | 0.04 | 96 | 1004.5 |
| 20260509050520 | 62 | 277 | 6.0 | 13.0 | 0.00 | 0.09 | 0.04 | 96 | 1004.4 |
| 20260509050020 | 62 | 275 | 8.0 | 13.0 | 0.00 | 0.09 | 0.04 | 96 | 1004.6 |
| 20260509045516 | 62 | 286 | 8.0 | 12.0 | 0.00 | 0.09 | 0.04 | 96 | 1004.5 |
| 20260509045014 | 62 | 274 | 7.0 | 12.0 | 0.00 | 0.09 | 0.04 | 96 | 1004.5 |
| 20260509044742 | 62 | 270 | 9.0 | 12.0 | 0.00 | 0.09 | 0.04 | 96 | 1004.5 |
| 20260509044001 | 63 | 273 | 7.0 | 12.0 | 0.00 | 0.09 | 0.04 | 95 | 1004.6 |
| 20260509043503 | 63 | 288 | 9.0 | 13.0 | 0.00 | 0.09 | 0.04 | 95 | 1004.6 |
| 20260509043006 | 63 | 286 | 9.0 | 13.0 | 0.00 | 0.09 | 0.04 | 95 | 1004.4 |
| 20260509043001 | 63 | 288 | 7.0 | 13.0 | 0.00 | 0.09 | 0.04 | 95 | 1004.4 |
| 20260509041954 | 63 | 288 | 6.0 | 13.0 | 0.00 | 0.09 | 0.04 | 95 | 1004.5 |
| 20260509041451 | 63 | 310 | 9.0 | 12.0 | 0.00 | 0.09 | 0.04 | 95 | 1004.5 |
| 20260509040947 | 63 | 303 | 7.0 | 11.0 | 0.00 | 0.09 | 0.04 | 95 | 1004.5 |
| 20260509040444 | 64 | 286 | 6.0 | 14.0 | 0.00 | 0.09 | 0.04 | 95 | 1004.1 |
| 20260509035940 | 64 | 288 | 9.0 | 16.0 | 0.00 | 0.09 | 0.04 | 94 | 1004.4 |
| 20260509035441 | 64 | 282 | 10.0 | 16.0 | 0.00 | 0.09 | 0.04 | 93 | 1004.6 |
| 20260509034941 | 64 | 296 | 9.0 | 12.0 | 0.00 | 0.09 | 0.04 | 94 | 1004.7 |
| 20260509034438 | 64 | 273 | 6.0 | 11.0 | 0.00 | 0.09 | 0.04 | 94 | 1004.8 |
| 20260509033933 | 64 | 273 | 9.0 | 15.0 | 0.00 | 0.09 | 0.04 | 94 | 1004.9 |
| 20260509033710 | 64 | 275 | 12.0 | 17.0 | 0.00 | 0.09 | 0.04 | 93 | 1004.9 |
| 20260509032929 | 64 | 302 | 11.0 | 17.0 | 0.00 | 0.09 | 0.04 | 93 | 1004.9 |
| 20260509032425 | 65 | 277 | 10.0 | 17.0 | 0.00 | 0.09 | 0.04 | 93 | 1005.1 |
| 20260509031919 | 65 | 307 | 8.0 | 13.0 | 0.00 | 0.09 | 0.04 | 93 | 1005.1 |
| 20260509031416 | 65 | 254 | 8.0 | 14.0 | 0.00 | 0.09 | 0.04 | 93 | 1005.2 |
| 20260509030910 | 65 | 284 | 9.0 | 14.0 | 0.00 | 0.09 | 0.04 | 93 | 1005.2 |
| 20260509030646 | 65 | 311 | 9.0 | 13.0 | 0.00 | 0.09 | 0.04 | 93 | 1005.2 |
| 20260509025907 | 65 | 279 | 10.0 | 13.0 | 0.00 | 0.09 | 0.04 | 92 | 1005.3 |
| 20260509025403 | 65 | 297 | 10.0 | 16.0 | 0.00 | 0.09 | 0.04 | 92 | 1005.2 |
| 20260509024905 | 66 | 300 | 10.0 | 16.0 | 0.00 | 0.09 | 0.04 | 92 | 1005.2 |
| 20260509024359 | 66 | 309 | 9.0 | 14.0 | 0.00 | 0.09 | 0.04 | 92 | 1005.2 |
| 20260509024131 | 65 | 309 | 11.0 | 14.0 | 0.00 | 0.09 | 0.04 | 91 | 1005.1 |
| 20260509023357 | 65 | 283 | 10.0 | 14.0 | 0.00 | 0.09 | 0.04 | 91 | 1005.1 |
| 20260509022850 | 65 | 284 | 11.0 | 14.0 | 0.00 | 0.09 | 0.04 | 91 | 1005.2 |
| 20260509022351 | 66 | 286 | 9.0 | 17.0 | 0.00 | 0.09 | 0.04 | 90 | 1005.1 |
| 20260509021846 | 66 | 314 | 11.0 | 17.0 | 0.00 | 0.09 | 0.04 | 88 | 1005.1 |
| 20260509021341 | 67 | 292 | 12.0 | 16.0 | 0.00 | 0.09 | 0.04 | 87 | 1005.0 |
| 20260509020841 | 68 | 274 | 10.0 | 14.0 | 0.00 | 0.09 | 0.04 | 88 | 1005.0 |
| 20260509020337 | 68 | 282 | 7.0 | 10.0 | 0.00 | 0.09 | 0.04 | 89 | 1005.0 |
| 20260509015839 | 67 | 282 | 5.0 | 12.0 | 0.00 | 0.09 | 0.04 | 90 | 1004.9 |
| 20260509015338 | 67 | 282 | 6.0 | 15.0 | 0.00 | 0.09 | 0.04 | 89 | 1005.0 |
| 20260509014837 | 67 | 234 | 10.0 | 15.0 | 0.00 | 0.09 | 0.04 | 89 | 1005.0 |
| 20260509014614 | 67 | 307 | 10.0 | 15.0 | 0.00 | 0.09 | 0.04 | 89 | 1005.2 |
| 20260509013837 | 67 | 286 | 11.0 | 15.0 | 0.00 | 0.09 | 0.04 | 89 | 1005.1 |
| 20260509013337 | 67 | 288 | 10.0 | 16.0 | 0.00 | 0.09 | 0.04 | 89 | 1005.1 |
| 20260509012841 | 66 | 296 | 11.0 | 16.0 | 0.00 | 0.09 | 0.04 | 90 | 1005.2 |
| 20260509012338 | 66 | 286 | 9.0 | 14.0 | 0.00 | 0.09 | 0.04 | 91 | 1005.2 |
| 20260509012108 | 66 | 254 | 11.0 | 14.0 | 0.00 | 0.09 | 0.04 | 89 | 1005.3 |
| 20260509011350 | 67 | 251 | 11.0 | 13.0 | 0.00 | 0.09 | 0.04 | 88 | 1005.5 |
| 20260509011345 | 67 | 249 | 9.0 | 13.0 | 0.00 | 0.09 | 0.04 | 89 | 1005.4 |
| 20260509010332 | 67 | 285 | 8.0 | 13.0 | 0.00 | 0.09 | 0.04 | 89 | 1005.5 |
| 20260509005832 | 67 | 291 | 11.0 | 16.0 | 0.00 | 0.09 | 0.04 | 89 | 1005.5 |
| 20260509005559 | 67 | 284 | 12.0 | 17.0 | 0.00 | 0.09 | 0.04 | 89 | 1005.6 |
| 20260509004823 | 67 | 286 | 9.0 | 17.0 | 0.00 | 0.09 | 0.04 | 90 | 1005.7 |
| 20260509004322 | 67 | 286 | 12.0 | 17.0 | 0.00 | 0.09 | 0.04 | 89 | 1005.8 |
| 20260509004049 | 67 | 283 | 13.0 | 19.0 | 0.00 | 0.09 | 0.04 | 89 | 1005.9 |
| 20260509003552 | 67 | 280 | 13.0 | 20.0 | 0.00 | 0.09 | 0.04 | 89 | 1006.0 |
| 20260509002814 | 67 | 284 | 11.0 | 20.0 | 0.00 | 0.09 | 0.04 | 89 | 1006.1 |
| 20260509002542 | 67 | 290 | 14.0 | 19.0 | 0.00 | 0.09 | 0.04 | 90 | 1006.1 |
| 20260509002039 | 66 | 292 | 11.0 | 17.0 | 0.00 | 0.09 | 0.04 | 91 | 1006.3 |
| 20260509001306 | 66 | 248 | 9.0 | 17.0 | 0.00 | 0.09 | 0.04 | 91 | 1006.4 |
| 20260509000806 | 66 | 269 | 13.0 | 17.0 | 0.00 | 0.09 | 0.04 | 90 | 1006.5 |
| 20260509000307 | 67 | 282 | 12.0 | 19.0 | 0.00 | 0.09 | 0.04 | 91 | 1006.6 |
| 20260509000027 | 66 | 281 | 12.0 | 19.0 | 0.00 | 0.09 | 0.04 | 92 | 1006.8 |
| 20260508235306 | 66 | 290 | 10.0 | 13.0 | 0.00 | 0.09 | 0.04 | 92 | 1006.8 |
| 20260508234758 | 66 | 284 | 10.0 | 16.0 | 0.00 | 0.09 | 0.04 | 93 | 1006.9 |
| 20260508234259 | 65 | 285 | 12.0 | 20.0 | 0.00 | 0.09 | 0.04 | 92 | 1007.0 |
| 20260508233758 | 66 | 268 | 15.0 | 20.0 | 0.00 | 0.09 | 0.04 | 92 | 1007.1 |
| 20260508233531 | 66 | 288 | 11.0 | 18.0 | 0.00 | 0.09 | 0.04 | 94 | 1007.1 |
| 20260508233025 | 66 | 248 | 11.0 | 18.0 | 0.00 | 0.09 | 0.04 | 93 | 1007.2 |
| 20260508232245 | 66 | 306 | 10.0 | 16.0 | 0.00 | 0.09 | 0.04 | 94 | 1007.2 |
| 20260508231740 | 66 | 325 | 10.0 | 17.0 | 0.00 | 0.09 | 0.04 | 94 | 1007.2 |
| 20260508231241 | 66 | 294 | 11.0 | 17.0 | 0.00 | 0.09 | 0.04 | 94 | 1007.4 |
| 20260508231010 | 66 | 286 | 10.0 | 14.0 | 0.00 | 0.09 | 0.04 | 94 | 1007.4 |
| 20260508230512 | 66 | 305 | 7.0 | 12.0 | 0.00 | 0.09 | 0.04 | 95 | 1007.5 |
| 20260508225735 | 65 | 260 | 8.0 | 17.0 | 0.00 | 0.09 | 0.04 | 94 | 1007.5 |
| 20260508225507 | 65 | 284 | 11.0 | 17.0 | 0.00 | 0.09 | 0.04 | 94 | 1007.5 |
| 20260508224732 | 65 | 287 | 7.0 | 14.0 | 0.00 | 0.09 | 0.04 | 95 | 1007.6 |
| 20260508224222 | 65 | 317 | 11.0 | 14.0 | 0.00 | 0.09 | 0.04 | 94 | 1007.5 |
| 20260508223718 | 65 | 284 | 10.0 | 15.0 | 0.00 | 0.09 | 0.04 | 95 | 1007.5 |
| 20260508223220 | 65 | 319 | 11.0 | 15.0 | 0.00 | 0.09 | 0.04 | 95 | 1007.6 |